Owen Roberts, Cayman Islands

5:23 PM EST on September 24, 2017 (GMT -0500)
Roberts International

Weather History for MWCR - June, 2014

Change the Weather History Date:

Saturday, June 7, 2014

  Actual Average Record
Temperature  
Mean Temperature 79 °F -  
Max Temperature 84 °F 86 °F 91 °F (1998)
Min Temperature 74 °F 78 °F 74 °F (2014)
Cooling Degree Days 14    
Growing Degree Days 29 (Base 50)    
Moisture  
Dew Point 76 °F    
Average Humidity 88    
Maximum Humidity 100    
Minimum Humidity 77    
Precipitation  
Precipitation 0.24 in - - ()
Sea Level Pressure  
Sea Level Pressure 29.95 in    
Wind  
Wind Speed 8 mph ()    
Max Wind Speed 17 mph    
Max Gust Speed -    
Visibility 6.0 miles    
Events Rain , Thunderstorm    
Averages and records for this station are not official NWS values.
T = Trace of Precipitation, MM = Missing Value Source: Averaged Metar Reports

Daily Weather History Graph

Daily Weather History Graph

Search for Another Location

Airport or City:

Trip Planner

Search our weather history database for the weather conditions in past years. The results will help you decide how hot, cold, wet, or windy it might be!

Date:

Astronomy

Jun. 07, 2014 Rise Set
Actual Time 5:46 AM EST 7:02 PM EST
Civil Twilight 5:22 AM EST 7:26 PM EST
Nautical Twilight 4:53 AM EST 7:55 PM EST
Astronomical Twilight 4:23 AM EST 8:24 PM EST
Moon 1:58 PM EST (6/7) 1:23 AM EST (6/7)
Length of Visible Light 14h 04m
Length of Day
13h 15m
Waxing Gibbous, 68% of the Moon is Illuminated
Jun 7
Waxing Gibbous
Jun 12
Full
Jun 19
Last Quarter
Jun 27
New
Jul 5
First Quarter

Hourly Weather History & Observations

Time (EST) Temp. Heat Index Dew Point Humidity Pressure Visibility Wind Dir Wind Speed Gust Speed Precip Events Conditions
6:00 AM 75.2 °F - 71.6 °F 89% 29.92 in 4.3 mi East 17.3 mph - N/A Rain , Thunderstorm Thunderstorms and Rain
7:00 AM 75 °F - 74 °F 98% 29.96 in 6 mi East 11.5 mph - - Rain , Thunderstorm Thunderstorms and Rain
7:00 AM 75.2 °F - 75.2 °F 100% 29.95 in 5.6 mi East 11.5 mph - N/A Rain , Thunderstorm Light Thunderstorms and Rain
8:00 AM 75.2 °F - 73.4 °F 94% 29.98 in 5.6 mi ENE 10.4 mph - N/A Rain , Thunderstorm Light Thunderstorms and Rain
9:00 AM 75.2 °F - 73.4 °F 94% 29.98 in 5.6 mi ENE 9.2 mph - N/A Rain Light Rain
10:00 AM 77.0 °F - 77.0 °F 100% 29.98 in 6.2 mi ENE 5.8 mph - N/A Rain Light Rain
11:00 AM 80.6 °F 87.1 °F 77.0 °F 89% 30.01 in 6.2 mi East 8.1 mph - N/A   Scattered Clouds
12:00 PM 82.4 °F 90.9 °F 77.0 °F 84% 29.98 in 6.2 mi East 4.6 mph - N/A   Scattered Clouds
1:00 PM 83 °F - 77 °F 77% 29.99 in 6 mi East 8.1 mph - -   Partly Cloudy
1:00 PM 82.4 °F 90.9 °F 77.0 °F 84% 29.98 in 6.2 mi East 8.1 mph - N/A   Scattered Clouds
2:00 PM 84.2 °F 94.1 °F 77.0 °F 79% 29.95 in 6.2 mi ENE 9.2 mph - N/A   Mostly Cloudy
3:00 PM 84.2 °F 94.1 °F 77.0 °F 79% 29.92 in 6.2 mi East 5.8 mph - N/A   Scattered Clouds
4:52 PM 82.4 °F 92.4 °F 78.8 °F 89% 29.89 in 6.2 mi East 6.9 mph - N/A   Partly Cloudy
5:50 PM 80.6 °F 87.1 °F 77.0 °F 89% 29.89 in 6.2 mi ESE 9.2 mph - N/A Rain Light Rain
6:51 PM 82.4 °F 92.4 °F 78.8 °F 89% 29.92 in 6.2 mi NE 6.9 mph - N/A   Scattered Clouds
7:00 PM 82 °F - 78 °F 84% 29.94 in 6 mi NE 6.9 mph - -   Partly Cloudy
7:52 PM 82.4 °F 92.4 °F 78.8 °F 89% 29.92 in 6.2 mi ENE 4.6 mph - N/A Thunderstorm Thunderstorm
8:50 PM 82.4 °F 92.4 °F 78.8 °F 89% 29.95 in 6.2 mi ENE 6.9 mph - N/A Thunderstorm Thunderstorm
9:53 PM 80.6 °F 86.2 °F 75.2 °F 84% 29.95 in 6.2 mi NE 6.9 mph - N/A   Partly Cloudy